Weather History for Grand Marais Airport, MN

Change the Weather History Date:

Wednesday, June 13, 2012

  Actual Average Record
Temperature  
Mean Temperature 50 °F -  
Max Temperature 66 °F 65 °F 80 °F (1998)
Min Temperature 35 °F 45 °F 35 °F (2012)
Degree Days  
Heating Degree Days 14    
Moisture  
Dew Point 39 °F    
Average Humidity 62    
Maximum Humidity 93    
Minimum Humidity 42    
Precipitation  
Precipitation 0.00 in - - ()
Sea Level Pressure  
Sea Level Pressure 30.08 in    
Wind  
Wind Speed 4 mph (South)    
Max Wind Speed 14 mph    
Max Gust Speed 22 mph    
Visibility 10 miles    
Events Rain    
Averages and records for this station are not official NWS values.
T = Trace of Precipitation, MM = Missing Value Source: NWS Daily Summary

Daily Weather History Graph

Daily Weather History Graph

Search for Another Location

Airport:

Trip Planner

Search our weather history database for the weather conditions in past years. The results will help you decide how hot, cold, wet, or windy it might be!

Date:

Astronomy

Jun. 13, 2012 Rise Set
Actual Time 5:02 AM CDT 9:01 PM CDT
Civil Twilight 4:21 AM CDT 9:42 PM CDT
Nautical Twilight 3:24 AM CDT 10:39 PM CDT
Astronomical Twilight 1:52 AM CDT 12:11 AM CDT
Moon 1:35 AM CDT (6/13) 3:31 PM CDT (6/13)
Length of Visible Light 17h 20m
Length of Day
15h 59m
Waning Crescent, 29% of the Moon is Illuminated
Jun 13
Waning Crescent
Jun 19
New
Jun 26
First Quarter
Jul 3
Full
Jul 10
Last Quarter

Hourly Weather History & Observations

Time (CDT) Temp. Windchill Dew Point Humidity Pressure Visibility Wind Dir Wind Speed Gust Speed Precip Events Conditions
12:14 AM 37.4 °F - 33.8 °F 87% 30.10 in 10.0 mi Calm Calm - N/A   Clear
12:33 AM 37.4 °F - 33.8 °F 87% 30.10 in 10.0 mi Calm Calm - N/A   Clear
12:53 AM 37.4 °F - 33.8 °F 87% 30.10 in 10.0 mi Calm Calm - N/A   Clear
1:13 AM 35.6 °F - 30.2 °F 81% 30.10 in 10.0 mi Calm Calm - N/A   Clear
1:33 AM 37.4 °F - 33.8 °F 87% 30.10 in 10.0 mi Calm Calm - N/A   Mostly Cloudy
1:54 AM 35.6 °F - 32.0 °F 87% 30.11 in 10.0 mi Calm Calm - N/A   Scattered Clouds
2:13 AM 35.6 °F - 33.8 °F 93% 30.10 in 10.0 mi Calm Calm - N/A   Clear
2:34 AM 37.4 °F 34.9 °F 33.8 °F 87% 30.10 in 10.0 mi WSW 3.5 mph - N/A   Mostly Cloudy
2:54 AM 35.6 °F - 32.0 °F 87% 30.10 in 10.0 mi Calm Calm - N/A   Scattered Clouds
3:13 AM 37.4 °F - 33.8 °F 87% 30.10 in 10.0 mi Calm Calm - N/A   Scattered Clouds
3:34 AM 37.4 °F - 33.8 °F 87% 30.09 in 10.0 mi Calm Calm - N/A   Mostly Cloudy
3:54 AM 39.2 °F - 37.4 °F 93% 30.09 in 10.0 mi Calm Calm - N/A   Mostly Cloudy
4:13 AM 37.4 °F - 35.6 °F 93% 30.10 in 10.0 mi Calm Calm - N/A   Scattered Clouds
4:34 AM 37.4 °F - 33.8 °F 87% 30.09 in 10.0 mi Calm Calm - N/A   Scattered Clouds
4:54 AM 37.4 °F - 33.8 °F 87% 30.09 in 10.0 mi Calm Calm - N/A   Clear
5:13 AM 37.4 °F - 33.8 °F 87% 30.09 in 10.0 mi Calm Calm - N/A   Scattered Clouds
5:33 AM 39.2 °F - 35.6 °F 87% 30.09 in 10.0 mi Calm Calm - N/A   Mostly Cloudy
6:13 AM 44.6 °F - 39.2 °F 81% 30.10 in 10.0 mi Calm Calm - N/A   Scattered Clouds
6:33 AM 46.4 °F - 41.0 °F 81% 30.11 in 10.0 mi Calm Calm - N/A   Scattered Clouds
6:54 AM 48.2 °F - 39.2 °F 71% 30.10 in 10.0 mi South 4.6 mph - N/A   Mostly Cloudy
7:14 AM 51.8 °F - 39.2 °F 62% 30.10 in 10.0 mi SSW 5.8 mph - N/A   Scattered Clouds
7:33 AM 53.6 °F - 39.2 °F 58% 30.11 in 10.0 mi South 5.8 mph - N/A   Clear
7:53 AM 55.4 °F - 39.2 °F 54% 30.12 in 10.0 mi South 9.2 mph - N/A   Scattered Clouds
8:14 AM 53.6 °F - 39.2 °F 58% 30.12 in 10.0 mi South 6.9 mph - N/A   Scattered Clouds
8:33 AM 53.6 °F - 39.2 °F 58% 30.12 in 10.0 mi South 6.9 mph - N/A   Scattered Clouds
8:54 AM 57.2 °F - 39.2 °F 51% 30.11 in 10.0 mi South 6.9 mph - N/A   Scattered Clouds
9:14 AM 57.2 °F - 39.2 °F 51% 30.11 in 10.0 mi SSW 12.7 mph 16.1 mph N/A   Scattered Clouds
9:33 AM 59.0 °F - 39.2 °F 48% 30.10 in 10.0 mi South 9.2 mph 16.1 mph N/A   Clear
9:54 AM 60.8 °F - 39.2 °F 45% 30.10 in 10.0 mi South 12.7 mph 19.6 mph N/A   Clear
10:13 AM 60.8 °F - 39.2 °F 45% 30.09 in 10.0 mi South 6.9 mph 17.3 mph N/A   Clear
10:54 AM 60.8 °F - 39.2 °F 45% 30.10 in 10.0 mi South 12.7 mph 20.7 mph N/A   Scattered Clouds
11:13 AM 60.8 °F - 39.2 °F 45% 30.09 in 10.0 mi SSW 11.5 mph 21.9 mph N/A   Clear
12:13 PM 62.6 °F - 41.0 °F 45% 30.09 in 10.0 mi SSW 10.4 mph 18.4 mph N/A   Clear
12:33 PM 62.6 °F - 39.2 °F 42% 30.09 in 10.0 mi SSW 12.7 mph 20.7 mph N/A   Clear
12:53 PM 62.6 °F - 39.2 °F 42% 30.09 in 10.0 mi SSW 13.8 mph 21.9 mph N/A   Clear
1:14 PM 62.6 °F - 41.0 °F 45% 30.09 in 10.0 mi SSW 10.4 mph 20.7 mph N/A   Clear
1:33 PM 64.4 °F - 42.8 °F 45% 30.08 in 10.0 mi South 9.2 mph 19.6 mph N/A   Clear
1:53 PM 64.4 °F - 42.8 °F 45% 30.08 in 10.0 mi South 11.5 mph 19.6 mph N/A   Clear
2:14 PM 62.6 °F - 42.8 °F 48% 30.08 in 10.0 mi South 9.2 mph 17.3 mph N/A   Clear
2:33 PM 64.4 °F - 42.8 °F 45% 30.07 in 10.0 mi South 8.1 mph 16.1 mph N/A   Clear
2:53 PM 64.4 °F - 42.8 °F 45% 30.07 in 10.0 mi South 10.4 mph 16.1 mph N/A   Clear
3:13 PM 64.4 °F - 42.8 °F 45% 30.07 in 10.0 mi SSE 8.1 mph 17.3 mph N/A   Clear
3:34 PM 64.4 °F - 42.8 °F 45% 30.07 in 10.0 mi South 10.4 mph - N/A   Clear
3:53 PM 66.2 °F - 42.8 °F 43% 30.06 in 10.0 mi SSE 8.1 mph - N/A   Clear
4:13 PM 64.4 °F - 42.8 °F 45% 30.06 in 10.0 mi SSE 10.4 mph - N/A   Clear
4:34 PM 64.4 °F - 42.8 °F 45% 30.06 in 10.0 mi SSE 9.2 mph 16.1 mph N/A   Clear
4:53 PM 66.2 °F - 42.8 °F 43% 30.06 in 10.0 mi South 6.9 mph - N/A   Clear
5:13 PM 66.2 °F - 42.8 °F 43% 30.06 in 10.0 mi South 5.8 mph - N/A   Clear
5:34 PM 66.2 °F - 42.8 °F 43% 30.06 in 10.0 mi South 10.4 mph - N/A   Clear
5:53 PM 64.4 °F - 42.8 °F 45% 30.06 in 10.0 mi South 5.8 mph - N/A   Clear
6:13 PM 64.4 °F - 42.8 °F 45% 30.05 in 10.0 mi SSE 6.9 mph - N/A   Clear
6:33 PM 64.4 °F - 42.8 °F 45% 30.05 in 10.0 mi SSE 5.8 mph - N/A   Clear
6:54 PM 60.8 °F - 42.8 °F 52% 30.04 in 10.0 mi SSE 4.6 mph - N/A   Clear
7:13 PM 59.0 °F - 42.8 °F 55% 30.04 in 10.0 mi SE 3.5 mph - N/A   Clear
7:33 PM 57.2 °F - 41.0 °F 55% 30.05 in 10.0 mi ESE 4.6 mph - N/A   Clear
7:53 PM 55.4 °F - 41.0 °F 58% 30.05 in 10.0 mi SE 4.6 mph - N/A   Clear
8:14 PM 55.4 °F - 41.0 °F 58% 30.05 in 10.0 mi ESE 4.6 mph - N/A   Scattered Clouds
8:33 PM 55.4 °F - 39.2 °F 54% 30.04 in 10.0 mi East 4.6 mph - N/A   Scattered Clouds
8:53 PM 53.6 °F - 39.2 °F 58% 30.04 in 10.0 mi Calm Calm - N/A   Clear
9:14 PM 53.6 °F - 39.2 °F 58% 30.04 in 10.0 mi Calm Calm - N/A   Clear
9:33 PM 53.6 °F - 39.2 °F 58% 30.05 in 10.0 mi SE 3.5 mph - N/A   Mostly Cloudy
9:53 PM 53.6 °F - 39.2 °F 58% 30.04 in 10.0 mi East 3.5 mph - N/A   Light Drizzle
10:14 PM 53.6 °F - 41.0 °F 62% 30.05 in 10.0 mi Calm Calm - N/A   Overcast
10:33 PM 53.6 °F - 41.0 °F 62% 30.05 in 10.0 mi Calm Calm - N/A   Overcast
10:54 PM 53.6 °F - 42.8 °F 67% 30.06 in 10.0 mi Calm Calm - N/A Rain Light Rain
11:33 PM 53.6 °F - 42.8 °F 67% 30.06 in 10.0 mi East 3.5 mph - N/A   Overcast
11:54 PM 53.6 °F - 42.8 °F 67% 30.06 in 10.0 mi ESE 3.5 mph - N/A   Overcast